Regional Weather Roundup
Issued by NWS

Home | Current Version | Previous Version | Text Only | Print | Product List | Glossary On
Versions: 1 2 3 4 5 6 7 8 9 10 11 12 13 14 15 16 17 18 19 20 21 22 23 24 25 26 27
000
ASUS45 KBOU 272307
RWRCO

WEATHER ROUNDUP FOR COLORADO
NATIONAL WEATHER SERVICE DENVER/BOULDER CO
500 PM MDT THU APR 27 2017

NOTE: "FAIR" INDICATES FEW OR NO CLOUDS BELOW 12000 FEET WITH NO
SIGNIFICANT WEATHER AND/OR OBSTRUCTIONS TO VISIBILITY.

COZ001>005-013-030-031-280000-
...NORTHWEST COLORADO...

CITY           SKY/WX    TMP DP  RH WIND       PRES   REMARKS
CRAIG          PTSUNNY   43  27  53 SW22G29   29.66F
HAYDEN         PTSUNNY   41  25  52 W14       29.66S
MEEKER         CLOUDY    39  29  67 VRB3      29.70R
MOUNT WERNER   NOT AVBL
STEAMBOAT SPGS CLOUDY    34  29  85 CALM      29.67R
WALDEN           N/A     37  21  52 SW15G22   29.63R
$$

COZ006>008-011-280000-
...WEST CENTRAL VALLEYS...

CITY           SKY/WX    TMP DP  RH WIND       PRES   REMARKS
GRAND JUNCTION CLOUDY    52  22  30 NW20G28   29.63S
MONTROSE       FAIR      58   0   9 W24G33    29.63S
EAGLE          PTSUNNY   43  27  52 S6        29.66S
RIFLE          PTSUNNY   50  26  39 VRB3      29.62R
DELTA          CLOUDY    60  17  18 NW20G25   29.61S
NUCLA          FAIR      55   3  12 W20G29    29.69S
$$

COZ017>023-064>068-280000-
...SOUTHWEST COLORADO...

CITY           SKY/WX    TMP DP  RH WIND       PRES   REMARKS
DURANGO        FAIR      50  25  37 NW24G35   29.66F
CORTEZ         FAIR      57  22  25 W16G36    29.65F
PAGOSA SPRINGS FAIR      47  22  36 SW22G30   29.65S
TELLURIDE      CLOUDY    39   7  27 NW14G33   29.73S
WOLF CREEK PAS FAIR      27  10  50 W12G23    29.76S WCI  16
$$

COZ009-010-012-014-032>034-037-058>063-280000-
...CENTRAL COLORADO...

CITY           SKY/WX    TMP DP  RH WIND       PRES   REMARKS
ASPEN          SNOW      30  29  96 N9G20     29.68R VSB 1/2 WCI  22
BUENA VISTA    FAIR      41  22  46 NW10G22   29.62R
COPPER MTN     CLOUDY    23  18  80 MISG      29.68S
BERTHOUD PASS  CLOUDY    14   3  62 NW36G46   29.62S WCI  -8
COTTONWOOD PAS PTSUNNY   37  14  38 W14G28    29.63R
GUNNISON       FAIR      41  23  48 N17G30    29.63S
KREMMLING      PTSUNNY   45  21  39 W8G16     29.65R
LEADVILLE      LGT SNOW  27  18  69 W7        29.64S WCI  19
MONARCH PASS     N/A     21  18  86 W45G53    29.76F WCI   0
SALIDA         FAIR      47  21  35 W13G23    29.67F
SUNLIGHT       LGT SNOW  23  21  93 SW3       29.73R VSB 3/4
WILKERSON PASS PTSUNNY   30  16  55 NW9G33    29.66R WCI  22
$$

COZ069>075-280000-
...SAN LUIS VALLEY/SANGRE DE CRISTO MOUNTAINS...

CITY           SKY/WX    TMP DP  RH WIND       PRES   REMARKS
ALAMOSA        FAIR      53  15  22 W23G31    29.58R
LA VETA PASS   PTSUNNY   34  27  75 MISG      29.73R
SAGUACHE       PTSUNNY   43  19  39 NW20G28   29.63S
$$

COZ035-036-038>040-280000-
...NORTHERN COLORADO FRONT RANGE...

CITY           SKY/WX    TMP DP  RH WIND       PRES   REMARKS
DENVER INTL AP PTSUNNY   53  34  48 N17G23    29.51S
DMNS CITY PARK   N/A     53  33  45 NE5G17    29.52R
AURORA         PTSUNNY   51  33  49 N12       29.53R
FRONT RANGE AP PTSUNNY   55  36  47 N20G26    29.52F
ERIE MUNI ARPT FAIR      54  33  44 NE9       29.51S
BOULDER MUN AP FAIR      55  19  24 NW22G29   29.50F
CENTENNIAL     PTSUNNY   50  33  52 N10       29.52S
BROOMFIELD     PTSUNNY   54  36  50 N8        29.52F
FORT COLLINS   FAIR      55  36  48 NE7       29.52F
LONGMONT       FAIR      58  33  37 NE8       29.53S HAZE
$$

COZ041-046-047-076>085-087-088-280000-
...PIKES PEAK/PALMER DIVIDE AND SOUTHERN FOOTHILLS...

CITY           SKY/WX    TMP DP  RH WIND       PRES   REMARKS
COLO. SPRINGS  PTSUNNY   50  33  52 N22G32    29.52R
A. F. ACADEMY  PTSUNNY   46  33  59 NW21      29.54R
SCHRIEVER AFB  LGT RAIN  46  30  53 N23G36    29.52R
ELLICOTT       FAIR     N/A N/A N/A N28G33    29.49R
FALCON         CLOUDY    43  29  57 N15G25    29.55R
FORT CARSON    CLOUDY    49  30  47 N24       29.50R
LIMON          FAIR      43  40  89 N26G33    29.51R
MONUMENT HILL  CLOUDY    39  32  75 N8        29.57R
TRINIDAD       PTSUNNY   57  27  31 W10       29.50S
$$

COZ042>045-048>051-090-091-280000-
...NORTHEAST COLORADO...

CITY           SKY/WX    TMP DP  RH WIND       PRES   REMARKS
GREELEY ARPT   FAIR      46  40  79 NE14      29.54S
AKRON          HVY RAIN  41  38  89 NW14      29.55R FOG
BURLINGTON     NOT AVBL
WRAY           NOT AVBL
STERLING       MIX PCPN  43  43 100 NW17G23   29.54R
HOLYOKE        LGT RAIN  46  41  81 E14       29.53R
FORT MORGAN    RAIN      39  37  90 N16G25    29.57S
$$

COZ086-089-092>099-280000-
...SOUTHEAST COLORADO...

CITY           SKY/WX    TMP DP  RH WIND       PRES   REMARKS
PUEBLO         FAIR      63  37  38 N22G30    29.43R
LA JUNTA       FAIR      69  32  25 SW13      29.37F
LAMAR          FAIR      70  30  22 VRB3      29.35S
SPRINGFIELD      N/A     61  38  42 SE7       29.42F
$$




USA.gov is the U.S. government's official web portal to all federal, state and local government web resources and services.